COSMOS 2251 DEB, 35594

Orbit data source: Space-Track

COSMOS 2251 DEB, 35594 is space debris in LEO originally from a launch on Wed, 16 Jun 1993 UTC launched from the Plesetsk Missile And Space Complex (PKMTR). The debris from Iridium 33, an American commercial communications satellite, has been tracked extensively since its accidental collision with the defunct Russian satellite Cosmos 2251 in 2009. This event, occurring at high speed in low Earth orbit (LEO), generated thousands of pieces of space debris, significantly increasing the risk of further collisions. The Iridium 33 debris cloud has impacted space traffic management and orbital debris mitigation strategies, making it a subject of ongoing study in space situational awareness.

Loading next visibility...
Identifier
35594, 1993-036AMM
Orbit
LEO
Country
Flag of CISCIS
Related business
Manufacturer
Unknown
Mission
Spacecraft
Bus & Motor
Unknown
Mass
Unknown
Launch date (UTC)
1993-06-16 (33 years ago)
Launch vehicle
Unknown
Launch site
Plesetsk Missile And Space Complex (PKMTR)
Object type
Payload
Rocket body
Debris
Shape & HBR
Unknown shape, 0.1 m
Radar Cross Section
Small (<0.1 m²)

Expand to show TLE details & history
Last TLE update: 2 days ago

TLE from 2 days ago
0 COSMOS 2251 DEB
1 35594U 93036AMM 26206.88720133  .00011929  00000-0  11196-2 0  9997
2 35594  73.8058   8.8548 0028424  74.7066 285.7255 14.93725631915417
Epoch: 2026-07-25T21:17Z
TLE epoch observation values (Epoch: 2026-07-25T21:17:34.194Z)
Latitude
-0.00003°
Longitude
105.86928°
Altitude
583.684 km
Speed
7.572 km/s
True Right ascension
00h 35m 25s
True Declination
0° 00' 00"
Sunlit
Object was in full shadow at epoch
Visualization orbit readout
Latitude
Unknown
Longitude
Unknown
Altitude
Unknown
Speed
Unknown
Apparent Right ascension
Unknown
Apparent Declination
Unknown
Sunlit
N/A
Visualization observer readout
Local Sidereal Time
04:39:21
Azimuth
Unknown
Elevation
Unknown
Doppler factor
Unknown
Orbital elements
Apogee altitude
603.701 km
Perigee altitude
564.123 km
Semi-major axis
6,962.049 km
Eccentricity
0.00284
Inclination
73.8058°
RAAN
8.8548°
Arg. of periapsis
74.7066°
True anomaly
285.41168°
Mean anomaly
285.7255°
Eccentric anomaly
285.56862°
Mean motion
3.73626 °/min
Orbital period
96.35 mins
BSTAR
0.0011196
Loading maneuver chart data...
Computing Atmospheric mass density...

Documentation

Showing up to 5 results
|